Flag for Japan Weather past 2 weeks in Shizuoka, Japan

Now
66 °F

Mild.


Feels Like: 66 °F
Forecast: 58 / 76 °F
Wind: 3 mph from Northeast

Location: Omaezaki

Current Time: Oct 26, 2014 at 12:33:32 AM

Latest Report: Oct 25, 2014 at 11:00 PM


Visibility: 13 mi

Pressure: 30.20 "Hg

Humidity: 90%

Dew point: 63 °F

Location of ShizuokaLocation

Historic Weather in Shizuoka — Graph

°F

Shizuoka temperature yesterday

Maximum temperature yesterday: 71 °F (at 2:00 PM)
Minimum temperature yesterday: 59 °F (at 6:00 AM)
Average temperature yesterday: 65 °F

Past Weeks' High & Low Weather Summary

 TemperatureHumidityPressure
High79 °F (Oct 14, 12:00 PM)100% (Oct 13, 2:00 PM)30.34 "Hg (Oct 13, 2:00 PM)
Low56 °F (Oct 16, 5:00 AM)35% (Oct 17, 11:00 AM)29.18 "Hg (Oct 14, 2:00 AM)
Average66 °F75%30.04 "Hg
* Reported Oct 10 11:00 PM — Oct 25 11:00 PM, Shizuoka, Weather by CustomWeather, © 2014

Note: Actual official high and low records may vary slightly from our data, if they occured in-between our weather recording intervals... More about our weather records

Advertising

Shizuoka weather history for previous 24 hours

 ConditionsComfort  
Time TempWeatherWind HumidityBarometerVisibility
11:00 PM
Oct 25
66 °FMild.3 mph90%30.20 "Hg12 mi
10:00 PM66 °FLight rain. Overcast.3 mph87%30.20 "Hg12 mi
9:00 PM67 °FLight rain. Overcast.3 mph85%30.21 "Hg12 mi
8:00 PM66 °FMild.3 mph87%30.20 "Hg12 mi
7:00 PM68 °FMild.3 mph79%30.20 "Hg12 mi
6:00 PM68 °FMild.5 mph74%30.19 "Hg12 mi
5:00 PM68 °FMild.3 mph71%30.18 "Hg12 mi
4:00 PM69 °FMild.3 mph68%30.18 "Hg12 mi
3:00 PM70 °FMild.3 mph64%30.18 "Hg12 mi
2:00 PM71 °FMild.5 mph60%30.17 "Hg12 mi
1:00 PM69 °FMild.6 mph57%30.18 "Hg12 mi
12:00 PM70 °FMild.6 mph55%30.20 "Hg12 mi
11:00 AM69 °FMild.8 mph58%30.22 "Hg12 mi
10:00 AM67 °FMild.9 mph62%30.23 "Hg12 mi
9:00 AM64 °FMild.10 mph72%30.23 "Hg12 mi
8:00 AM62 °FMild.9 mph76%30.23 "Hg12 mi
7:00 AM60 °FCool.7 mph86%30.22 "Hg12 mi
6:00 AM59 °FCool.7 mph92%30.20 "Hg12 mi
5:00 AM59 °FCool.7 mph91%30.20 "Hg12 mi
4:00 AM60 °FCool.7 mph92%30.19 "Hg12 mi
3:00 AM60 °FCool.6 mph91%30.19 "Hg12 mi
2:00 AM61 °FCool.7 mph93%30.19 "Hg11 mi
1:00 AM62 °FCool.6 mph90%30.20 "Hg12 mi
12:00 AM62 °FCool.5 mph91%30.19 "Hg11 mi
Weather by CustomWeather, © 2014

See weather overviewHow to use our weather pages